Hourly Data Report for May 08, 2012

All times are specified in Local Standard Time (LST). Add 1 hour to adjust for Daylight Saving Time where and when it is observed.

LONDON A
ONTARIO

43°01'59.000" N
81°09'04.000" W
278.00 m
6144473
71623
YXU

Download Data

Hourly Data (May 2012)
Hourly Data Report for May 8, 2012
Temp Definition
°C
Dew Point Temp Definition
°C
Rel Hum Definition
%
Wind Dir Definition
10's deg

Wind Spd Definition
km/h
Visibility Definition
km
Stn Press Definition
kPa
Hmdx Definition


Wind Chill Definition


Weather Definition


TIME
00:00 Legend Double Dagger 12.5 12.4 99 31 6 3.2 97.58     Rain,Fog
01:00 Legend Double Dagger 12.5 12.4 99 31 4 2.4 97.53     Rain,Fog
02:00 Legend Double Dagger 12.6 12.5 99 28 6 1.2 97.49     Rain,Fog
03:00 Legend Double Dagger 12.9 12.9 100 29 6 1.2 97.49     Rain,Fog
04:00 Legend Double Dagger 12.9 12.8 99 30 9 2.0 97.48     Rain,Fog
05:00 Legend Double Dagger 12.6 12.5 99 31 12 4.0 97.47     Rain,Fog
06:00 Legend Double Dagger 11.4 10.9 97 31 12 4.0 97.51     Fog
07:00 Legend Double Dagger 11.0 9.8 92 31 10 10.0 97.55     Cloudy
08:00 Legend Double Dagger 11.2 9.8 91 31 12 10.0 97.58     LegendNANA
09:00 Legend Double Dagger 13.6 10.3 80 31 14 10.0 97.54     LegendNANA
10:00 Legend Double Dagger 15.4 11.4 77 27 18 10.0 97.59     Mostly Cloudy
11:00 Legend Double Dagger 15.9 12.3 79 29 17 10.0 97.59     LegendNANA
12:00 Legend Double Dagger 14.9 11.5 80 29 21 10.0 97.61     LegendNANA
13:00 Legend Double Dagger 14.9 11.7 81 29 14 10.0 97.61     Mostly Cloudy
14:00 Legend Double Dagger 16.1 12.7 80 31 9 10.0 97.60     LegendNANA
15:00 Legend Double Dagger 16.5 11.9 74 32 16 10.0 97.60     LegendNANA
16:00 Legend Double Dagger 17.2 11.8 70 29 14 10.0 97.58     Mainly Clear
17:00 Legend Double Dagger 17.1 10.5 65 31 13 10.0 97.60     LegendNANA
18:00 Legend Double Dagger 17.1 9.6 61 32 12 10.0 97.61     LegendNANA
19:00 Legend Double Dagger 15.5 10.7 73   0 10.0 97.59     Mostly Cloudy
20:00 Legend Double Dagger 13.3 10.5 83   0 10.0 97.57     LegendNANA
21:00 Legend Double Dagger 12.0 9.9 87 12 9 10.0 97.58     LegendNANA
22:00 Legend Double Dagger 13.2 11.3 88 13 6 10.0 97.61     Rain Showers
23:00 Legend Double Dagger 12.5 11.7 95 2 4 10.0 97.61     LegendNANA

Notes on Data Quality.

Legend

  • E = Estimated
  • M = Missing
  • NA = Not Available
  • ‡ = Partner data that is not subject to review by the National Climate Archives
Date modified: